Home > Weather > Heinsberg > Past weeks

Flag for Germany Weather for the Past 2 Weeks in Heinsberg, North Rhine-Westphalia, Germany

Now
37 °F

Sprinkles. Partly cloudy.


Feels Like: 28 °F
Forecast: 38 / 45 °F
Wind: 16 mph from Southwest

Location: Geilenkirchen Airport

Current Time: Feb 10, 2016 at 6:29:38 AM

Latest Report: Feb 10, 2016 at 4:50 AM


Visibility: N/A

Pressure: 29.27 "Hg

Humidity: 87%

Dew point: 34 °F

Location of HeinsbergLocation

Historic Weather in Heinsberg — Graph

°F

Heinsberg Temperature Yesterday

Maximum temperature yesterday: 52 °F (at 2:50 PM)
Minimum temperature yesterday: 37 °F (at 5:50 PM)
Average temperature yesterday: 43 °F

High & Low Weather Summary for the Past Weeks

 TemperatureHumidityPressure
High54 °F (Jan 26, 1:50 PM)100% (Jan 31, 8:50 PM)30.33 "Hg (Jan 31, 8:50 PM)
Low37 °F (Feb 3, 9:50 AM)57% (Jan 28, 2:50 PM)28.82 "Hg (Feb 9, 2:50 PM)
Average46 °F83%29.99 "Hg
* Reported Jan 26 4:50 AM — Feb 10 4:50 AM, Heinsberg, Weather by CustomWeather, © 2016

Note: Actual official high and low records may vary slightly from our data, if they occured in-between our weather recording intervals... More about our weather records

Advertising

Heinsberg Weather History for the Previous 24 Hours

 ConditionsComfort  
Time TempWeatherWind HumidityBarometerVisibility
4:50 AM
Wed, Feb 10
37 °FSprinkles. Partly cloudy.16 mph87%29.27 "HgN/A
3:50 AM39 °FPartly cloudy.18 mph81%29.27 "HgN/A
2:50 AM39 °FSprinkles. Partly cloudy.13 mph81%29.27 "HgN/A
1:50 AM39 °FClear.15 mph81%29.27 "Hg10 mi
12:50 AM39 °FPassing clouds.14 mph81%29.27 "HgN/A
11:50 PM
Tue, Feb 9
39 °FClear.14 mph81%29.24 "Hg10 mi
10:50 PM39 °FPassing clouds.15 mph87%29.24 "HgN/A
9:50 PM39 °FPartly cloudy.17 mph87%29.21 "HgN/A
8:50 PM39 °FPassing clouds.16 mph93%29.18 "HgN/A
7:50 PM37 °FPartly cloudy.17 mph93%29.12 "Hg5 mi
6:50 PM37 °FPassing clouds.26 mph87%29.09 "Hg3 mi
5:50 PM37 °FPassing clouds.28 mph93%28.97 "Hg4 mi
4:50 PM41 °FPartly sunny.23 mph93%28.91 "HgN/A
3:50 PM50 °FBroken clouds.18 mph71%28.85 "HgN/A
2:50 PM52 °FSprinkles. Broken clouds.15 mph82%28.82 "HgN/A
1:50 PM48 °FLight rain. Broken clouds.8 mph87%28.88 "HgN/A
12:50 PM41 °FLight rain. Broken clouds.13 mph93%28.97 "HgN/A
11:50 AM43 °FDrizzle. Fog.9 mph87%29.12 "Hg3 mi
10:50 AM43 °FLight rain. Overcast.6 mph87%29.21 "Hg4 mi
9:50 AM45 °FLight rain. Partly sunny.9 mph76%29.30 "HgN/A
8:50 AM45 °FSunny.12 mph76%29.33 "Hg10 mi
7:50 AM45 °FPartly cloudy.13 mph71%29.39 "HgN/A
6:50 AM45 °FPartly cloudy.14 mph71%29.42 "HgN/A
Weather by CustomWeather, © 2016

See weather overviewHow to use our weather pages